SORCE

Last updated on Sun Apr 12 2026 00:02:44 GMT+0000 (Coordinated Universal Time)

1 27651U 03004A 26101.51812884 .00002675 00000+0 20376-3 0 9995 2 27651 39.9908 281.9422 0018505 292.1101 67.7729 15.03355537261862
UTC large
Height (km)
Speed (km/s)
/
Latitude / Longitude
Inclination (degrees)
Orbital Period (minutes)
Azimuth
Elevation
Range (km)
Doppler Factor

Next 0 passes for location: London (51.5072 / 0.1276)

Sorry there are no passes over London.
SORCE